Hourly Data Report for October 21, 2020

MUSKOKA
ONTARIO
Current Station Operator: NAVCAN

44°58'29.000" N
79°18'12.000" W
281.90 m
6115529
71532
YQA

Download Data

Hourly Data (October 2020)
Hourly Data Report for October 21, 2020
TIME Temp Definition
°C
Dew Point Definition
°C
Rel Hum Definition
%
Wind Dir Definition
10's deg

Wind Spd Definition
km/h
Visibility Definition
km
Stn Press Definition
kPa
Hmdx Definition


Wind Chill Definition


Weather Definition


00:00 3.2 2.0 92 LegendMM 4 16.1 98.91     LegendNANA
01:00 3.8 2.3 90 8 8 16.1 98.80     LegendNANA
02:00 4.2 2.2 87 10 17 16.1 98.59     LegendNANA
03:00 4.2 2.6 89 10 13 16.1 98.37     LegendNANA
04:00 4.3 3.4 94 11 18 4.8 98.30     Rain,Fog
05:00 4.5 4.1 97 11 18 16.1 98.08     Rain
06:00 5.4 5.1 98 13 18 16.1 97.96     LegendNANA
07:00 6.4 6.1 98 13 17 4.8 97.94     Rain,Fog
08:00 7.6 7.3 98 16 13 4.8 97.96     Fog
09:00 10.1 9.9 99 18 15 4.8 97.97     Rain,Fog
10:00 11.3 10.7 96 25 17 16.1 98.07     Rain
11:00 11.2 9.7 90 24 21 16.1 98.16     LegendNANA
12:00 11.3 8.4 82 25 18 16.1 98.24     LegendNANA
13:00 11.4 8.3 81 26 21 16.1 98.32     LegendNANA
14:00 10.9 8.0 82 26 18 16.1 98.44     LegendNANA
15:00 10.8 6.3 74 26 18 16.1 98.55     LegendNANA
16:00 10.4 5.6 72 26 15 16.1 98.62     LegendNANA
17:00 9.9 6.3 78 26 13 16.1 98.69     LegendNANA
18:00 8.1 5.7 85 20 5 16.1 98.72     LegendNANA
19:00 4.3 3.8 96 18 5 16.1 98.76     LegendNANA
20:00 4.7 3.9 94 20 8 16.1 98.83     LegendNANA
21:00 4.9 4.3 96 19 9 16.1 98.92     LegendNANA
22:00 5.0 4.3 96 17 8 16.1 98.93     LegendNANA
23:00 3.2 2.9 98 18 5 16.1 98.96     LegendNANA

Notes on Data Quality.

Legend

  • E = Estimated
  • M = Missing
  • NA = Not Available*
  • [empty] = Indicates an unobserved value
Date modified: